Abilene Dyess, TX

7:22 AM CDT on July 22, 2017 (GMT -0500)
Dyess Air Force Base

Weather History for KDYS - March, 2014

Change the Weather History Date:

Monday, March 31, 2014

  Actual Average Record
Temperature  
Mean Temperature 72 °F -  
Max Temperature 88 °F 70 °F 94 °F (2012)
Min Temperature 55 °F 49 °F 35 °F (1997)
Cooling Degree Days 7    
Growing Degree Days 22 (Base 50)    
Moisture  
Dew Point 41 °F    
Average Humidity 41    
Maximum Humidity 77    
Minimum Humidity 7    
Precipitation  
Precipitation 0.00 in - - ()
Sea Level Pressure  
Sea Level Pressure 29.75 in    
Wind  
Wind Speed 19 mph (SW)    
Max Wind Speed 31 mph    
Max Gust Speed 40 mph    
Visibility 10 miles    
Events      
Averages and records for this station are not official NWS values.
T = Trace of Precipitation, MM = Missing Value Source: NWS Daily Summary

Daily Weather History Graph

Daily Weather History Graph

Search for Another Location

Airport or City:

Trip Planner

Search our weather history database for the weather conditions in past years. The results will help you decide how hot, cold, wet, or windy it might be!

Date:

Astronomy

Mar. 31, 2014 Rise Set
Actual Time 7:28 AM CDT 7:58 PM CDT
Civil Twilight 7:04 AM CDT 8:23 PM CDT
Nautical Twilight 6:35 AM CDT 8:52 PM CDT
Astronomical Twilight 6:05 AM CDT 9:21 PM CDT
Moon 7:56 AM CDT (3/31) 9:13 PM CDT (3/31)
Length of Visible Light 13h 19m
Length of Day
12h 29m
New Moon, 1% of the Moon is Illuminated
Mar 31
New Moon
Apr 7
First Quarter
Apr 15
Full
Apr 22
Last Quarter
Apr 29
New

Hourly Weather History & Observations

Time (CDT) Temp. Dew Point Humidity Pressure Visibility Wind Dir Wind Speed Gust Speed Precip Events Conditions
12:58 AM 68.0 °F 48.2 °F 49% 29.71 in 10.0 mi South 29.9 mph 38.0 mph N/A   Clear
1:58 AM 66.2 °F 48.2 °F 52% 29.69 in 10.0 mi South 26.5 mph 39.1 mph N/A   Clear
2:58 AM 64.4 °F 48.2 °F 56% 29.67 in 10.0 mi South 31.1 mph 40.3 mph N/A   Clear
3:58 AM 62.6 °F 50.0 °F 63% 29.66 in 10.0 mi South 28.8 mph 35.7 mph N/A   Clear
4:58 AM 62.6 °F 50.0 °F 63% 29.64 in 10.0 mi South 29.9 mph 36.8 mph N/A   Partly Cloudy
5:58 AM 60.8 °F 51.8 °F 72% 29.69 in 10.0 mi South 16.1 mph 28.8 mph N/A   Scattered Clouds
6:58 AM 60.8 °F 51.8 °F 72% 29.69 in 10.0 mi South 21.9 mph 31.1 mph N/A   Mostly Cloudy
7:56 AM 60.8 °F 53.6 °F 77% 29.83 in 10.0 mi SW 12.7 mph 24.2 mph N/A   Clear
7:58 AM 60.8 °F 53.6 °F 77% 29.73 in 10.0 mi SW 13.8 mph 24.2 mph N/A   Clear
8:03 AM 60.8 °F 53.6 °F 77% 29.83 in 10.0 mi South 17.3 mph 24.2 mph N/A   Clear
8:58 AM 64.4 °F 53.6 °F 68% 29.75 in 10.0 mi South 13.8 mph 21.9 mph N/A   Partly Cloudy
9:58 AM 68.0 °F 53.6 °F 60% 29.76 in 10.0 mi South 13.8 mph - N/A   Partly Cloudy
10:58 AM 73.4 °F 53.6 °F 50% 29.77 in 10.0 mi SW 12.7 mph - N/A   Clear
11:58 AM 77.0 °F 50.0 °F 39% 29.78 in 10.0 mi West 10.4 mph - N/A   Clear
12:04 PM 78.8 °F 50.0 °F 36% 29.89 in 10.0 mi WNW 11.5 mph 17.3 mph N/A   Clear
12:47 PM 80.6 °F 44.6 °F 28% 29.89 in 10.0 mi NW 12.7 mph 18.4 mph N/A   Partly Cloudy
12:58 PM 80.6 °F 42.8 °F 26% 29.76 in 10.0 mi NW 12.7 mph - N/A   Clear
1:58 PM 84.2 °F 37.4 °F 19% 29.74 in 10.0 mi West 11.5 mph 17.3 mph N/A   Clear
2:22 PM 86.0 °F 35.6 °F 17% 29.85 in 10.0 mi WNW 17.3 mph 21.9 mph N/A   Clear
2:58 PM 87.8 °F 32.0 °F 14% 29.72 in 10.0 mi WNW 15.0 mph 20.7 mph N/A   Clear
3:58 PM 87.8 °F 30.2 °F 13% 29.70 in 10.0 mi West 10.4 mph - N/A   Clear
4:58 PM 89.6 °F 17.6 °F 7% 29.69 in 10.0 mi NW 13.8 mph 20.7 mph N/A   Clear
5:58 PM 87.8 °F 17.6 °F 8% 29.68 in 10.0 mi NW 10.4 mph - N/A   Clear
6:58 PM 86.4 °F 15.8 °F 7% 29.69 in 10.0 mi WNW 6.9 mph - N/A   Clear
7:58 PM 78.8 °F 19.6 °F 11% 29.72 in 2.5 mi West 1.2 mph - N/A   Haze
8:58 PM 63.5 °F 24.3 °F 22% 29.75 in 10.0 mi ESE 3.5 mph - N/A   Clear
9:58 PM 59.7 °F 26.1 °F 28% 29.78 in 10.0 mi South 2.3 mph - N/A   Clear
10:58 PM 55.2 °F 26.4 °F 33% 29.79 in 10.0 mi South 5.8 mph - N/A   Clear
11:58 PM 65.8 °F 42.8 °F 43% 29.77 in 10.0 mi South 10.4 mph - N/A   Clear